Tracking 29511 objects as of 17-Sep-2024
HD Live streaming from Space Station
objects crossing your sky now

COSMOS 1823 DEB

Track COSMOS 1823 DEB now!
10-day predictions


NORAD ID: 39833
Int'l Code: 1987-020FH
Perigee: 1,419.7 km
Apogee: 1,453.4 km
Inclination: 73.8 °
Period: 114.4 minutes
Semi major axis: 7807 km
RCS: 0.0132 m2 (small)
Launch date: February 20, 1987
Source: Commonwealth of Independent States (former USSR) (CIS)
Launch site: PLESETSK MISSILE AND SPACE COMPLEX (PKMTR)

Note: This is SATELLITE DEBRIS
Your satellite tracking list
Your tracking list is empty




NASA's NSSDC Master Catalog

Two Line Element Set (TLE):
1 39833U 87020FH  24257.25387014  .00000701  00000-0  42225-2 0  9998
2 39833  73.7765 260.8925 0021566 204.4683 155.5349 12.58440837471930
Source of the keplerian elements: AFSPC